Location: Borz?cin
(51.1714°N, 19.6030°E)
Time: 18:10:41
(UTC+00:00)

SL-16 R/B - Pass Details

Date: 19 May 2025
Orbit: 841 x 844 km, 71.0° (Epoch: 21 June)

Event Time Altitude Azimuth Distance (km) Brightness Sun altitude
Rises 20:57:27 0° 331° (NNW) 3,415 7.2 -15.5°
Reaches altitude 10° 21:00:00 10° 337° (NNW) 2,476 6.0 -15.7°
Maximum altitude 21:05:30 49° 52° (NE) 1,080 2.8 -16.0°
Enters shadow 21:09:30 18° 121° (ESE) 1,943 3.6 -16.2°
